GONETS M 22

导读

GONETS M 22是一颗由独联体(CIS)所属俄罗斯,于2020年12月3日发射的通信卫星,隶属于Gonets-M低轨物联网卫星系列。单星重量约280公斤,运行在高度1500公里、倾角82.5度的近地轨道,主要承担物联网通信任务,可在无地面站覆盖区域暂存数据,能提供2.4Kb/sec到9.6Kb/sec的下行速率,为俄罗斯及高纬度地区提供基础卫星通信服务,是俄罗斯“球体”星座规划中低轨通信网络的组成部分。

基本信息
目录编号:
47229
目录名称:
GONETS M 22
国际标识:
2020-091C
轨道中心:
EARTH
卫星名称:
GONETS M 22
卫星全名:
--
卫星状态:
在轨 (已飞行2110 天)
发射日期:
2020-12-03 UTC
国别 :
俄罗斯(独联体) (CIS)
星等 :
--
该卫星已列入 空间交会检测服务 Space Conjunction Data Service (SCDS) ,当前飞行风险评估等级: 无高风险
轨道信息
数据来源 国际轨道数据 AOE轨道数据
星历时间 2026-09-13T08:23:27+0800
5小时前
查看轨道信息
2026-09-11T11:00:00+0800
2天前
查看轨道信息
半长轴 7872.494km 7872.481km
偏心率 0.0021535 0.0021117
轨道倾角 82.496° 82.498°
近地点辐角 348.057° 352.975°
升交点赤经 247.424° 248.600°
平近点角 12.000° 188.797°
近地点 1477.403km 1477.719km
远地点 1511.311km 1510.969km
周期 115.859分钟 115.858分钟
每日圈数 12.428947 12.428976
详细信息
使用方式:
暂无
2D轨道图
3D轨道图
轨道高度分析图
轨道倾角分析图
轨道综合分析图
查看轨道综合分析图
与全量物体交会距离演化趋势
与全量物体交会风险概率演化趋势